Pottstown, PA

8:25 AM EDT on April 28, 2017 (GMT -0400)
Pottstown Limerick

Weather History for KPTW - November, 2012

Change the Weather History Date:

Tuesday, November 20, 2012

  Actual Average (KRDG) Record (KRDG)
Temperature  
Mean Temperature 42 °F -  
Max Temperature 51 °F 49 °F 77 °F (1985)
Min Temperature 32 °F 32 °F 18 °F (1984)
Degree Days  
Heating Degree Days 24    
Moisture  
Dew Point 33 °F    
Average Humidity 75    
Maximum Humidity 92    
Minimum Humidity 52    
Precipitation  
Precipitation 0.00 in - - ()
Sea Level Pressure  
Sea Level Pressure 30.18 in    
Wind  
Wind Speed 0 mph (NNE)    
Max Wind Speed 4 mph    
Max Gust Speed -    
Visibility 10 miles    
Events      
Averages and records for this station are not official NWS values.
T = Trace of Precipitation, MM = Missing Value Source: NWS Daily Summary

Daily Weather History Graph

Daily Weather History Graph

Search for Another Location

Airport or City:

Trip Planner

Search our weather history database for the weather conditions in past years. The results will help you decide how hot, cold, wet, or windy it might be!

Date:

Astronomy

Nov. 20, 2012 Rise Set
Actual Time 6:54 AM EST 4:41 PM EST
Civil Twilight 6:24 AM EST 5:10 PM EST
Nautical Twilight 5:51 AM EST 5:44 PM EST
Astronomical Twilight 5:19 AM EST 6:16 PM EST
Moon 12:27 PM EST (11/20) No Moon Set
Length of Visible Light 10h 46m
Length of Day
9h 47m
Waxing Crescent, 51% of the Moon is Illuminated
Nov 20
Waxing Crescent
Nov 28
Full
Dec 6
Last Quarter
Dec 13
New
Dec 20
First Quarter

Hourly Weather History & Observations

Time (EST) Temp. Windchill Dew Point Humidity Pressure Visibility Wind Dir Wind Speed Gust Speed Precip Events Conditions
12:54 AM 42.1 °F - 35.1 °F 76% 30.23 in 10.0 mi Calm Calm - N/A   Overcast
1:34 AM 39.2 °F - 33.8 °F 81% 30.22 in 10.0 mi Calm Calm - N/A   Scattered Clouds
1:54 AM 36.0 °F - 33.1 °F 89% 30.23 in 10.0 mi Calm Calm - N/A   Clear
2:54 AM 35.1 °F - 32.0 °F 89% 30.22 in 10.0 mi Calm Calm - N/A   Clear
3:54 AM 34.0 °F - 32.0 °F 92% 30.22 in 10.0 mi Calm Calm - N/A   Clear
4:54 AM 32.0 °F - 30.0 °F 92% 30.21 in 10.0 mi Calm Calm - N/A   Clear
5:54 AM 32.0 °F - 30.0 °F 92% 30.21 in 10.0 mi Calm Calm - N/A   Clear
6:54 AM 32.0 °F - 30.0 °F 92% 30.21 in 10.0 mi Calm Calm - N/A   Clear
7:54 AM 33.1 °F - 30.9 °F 92% 30.21 in 9.0 mi Calm Calm - N/A   Clear
8:54 AM 37.0 °F 34.5 °F 33.1 °F 86% 30.22 in 10.0 mi NW 3.5 mph - N/A   Clear
9:54 AM 45.0 °F - 35.1 °F 68% 30.20 in 10.0 mi Calm Calm - N/A   Unknown
10:54 AM 48.0 °F - 36.0 °F 63% 30.18 in 10.0 mi Variable 3.5 mph - N/A   Unknown
11:54 AM 50.0 °F - 37.0 °F 61% 30.17 in 10.0 mi Calm Calm - N/A   Clear
12:54 PM 50.0 °F - 35.1 °F 57% 30.14 in 10.0 mi Calm Calm - N/A   Clear
1:54 PM 51.1 °F - 36.0 °F 56% 30.13 in 10.0 mi Variable 3.5 mph - N/A   Clear
2:54 PM 51.1 °F - 34.0 °F 52% 30.12 in 10.0 mi Calm Calm - N/A   Clear
3:54 PM 50.0 °F - 34.0 °F 54% 30.13 in 10.0 mi East 3.5 mph - N/A   Clear
4:54 PM 46.0 °F - 35.1 °F 66% 30.13 in 10.0 mi Calm Calm - N/A   Clear
5:54 PM 43.0 °F - 35.1 °F 74% 30.13 in 10.0 mi Calm Calm - N/A   Clear
6:54 PM 42.1 °F - 34.0 °F 73% 30.14 in 10.0 mi Calm Calm - N/A   Clear
7:54 PM 41.0 °F - 33.1 °F 73% 30.15 in 10.0 mi Calm Calm - N/A   Clear
8:54 PM 39.9 °F - 33.1 °F 77% 30.14 in 8.0 mi Calm Calm - N/A   Clear
9:54 PM 39.9 °F - 32.0 °F 73% 30.15 in 10.0 mi Calm Calm - N/A   Unknown
10:54 PM 39.9 °F - 33.1 °F 77% 30.15 in 10.0 mi Calm Calm - N/A   Clear
11:54 PM 39.0 °F - 32.0 °F 76% 30.16 in 10.0 mi Calm Calm - N/A   Clear